INTELSAT 906 (IS-906)

Last updated on Thu Oct 30 2025 00:02:47 GMT+0000 (Coordinated Universal Time)

1 27513U 02041A 25302.41214405 .00000026 00000+0 00000+0 0 9994 2 27513 5.2144 75.7558 0005022 173.6638 1.0947 1.00272437 84713
UTC large
Height (km)
Speed (km/s)
/
Latitude / Longitude
Inclination (degrees)
Orbital Period (minutes)
Azimuth
Elevation
Range (km)
Doppler Factor

Next 0 passes for location: London (51.5072 / 0.1276)

Sorry there are no passes over London.